Danvers, MA

6:23 PM EST on February 06, 2016 (GMT -0500)
Beverly Municipal

Weather History for KBVY - April, 2012

Change the Weather History Date:

Wednesday, April 25, 2012

  Actual Average (KBOS) Record (KBOS)
Temperature  
Mean Temperature 52 °F 51 °F  
Max Temperature 63 °F 59 °F 83 °F (2009)
Min Temperature 42 °F 44 °F 27 °F (1892)
Degree Days  
Heating Degree Days 13 14  
Month to date heating degree days 445  
Since 1 July heating degree days 5316  
Cooling Degree Days 0 0  
Month to date cooling degree days 0  
Year to date cooling degree days 0  
Growing Degree Days 2 (Base 50)    
Moisture  
Dew Point 33 °F    
Average Humidity 54    
Maximum Humidity 89    
Minimum Humidity 27    
Precipitation  
Precipitation 0.00 in 0.11 in 2.10 in (1901)
Month to date precipitation 3.17  
Year to date precipitation 14.10  
Sea Level Pressure  
Sea Level Pressure 29.75 in    
Wind  
Wind Speed 7 mph (SW)    
Max Wind Speed 17 mph    
Max Gust Speed 29 mph    
Visibility 10 miles    
Events      
T = Trace of Precipitation, MM = Missing Value Source: NWS Daily Summary

Daily Weather History Graph

Daily Weather History Graph

Search for Another Location

Airport or City:

Trip Planner

Search our weather history database for the weather conditions in past years. The results will help you decide how hot, cold, wet, or windy it might be!

Date:

Astronomy

Apr. 25, 2012 Rise Set
Actual Time 5:46 AM EDT 7:37 PM EDT
Civil Twilight 5:16 AM EDT 8:07 PM EDT
Nautical Twilight 4:39 AM EDT 8:44 PM EDT
Astronomical Twilight 3:59 AM EDT 9:24 PM EDT
Moon 8:25 AM EDT (4/25) 11:44 PM EDT (4/25)
Length of Visible Light 14h 51m
Length of Day
13h 51m
Waxing Crescent, 16% of the Moon is Illuminated
Apr 25
Waxing Crescent
Apr 29
First Quarter
May 5
Full
May 12
Last Quarter
May 20
New

Hourly Weather History & Observations

Time (EDT) Temp. Windchill Dew Point Humidity Pressure Visibility Wind Dir Wind Speed Gust Speed Precip Events Conditions
12:53 AM 46.0 °F 42.5 °F 37.9 °F 73% 29.69 in 10.0 mi SSE 6.9 mph - N/A   Clear
1:51 AM 46.4 °F 43.5 °F 39.2 °F 76% 29.71 in 10.0 mi SSE 5.8 mph - N/A   Mostly Cloudy
1:53 AM 46.9 °F - 39.0 °F 74% 29.70 in 10.0 mi SSE 4.6 mph - N/A   Mostly Cloudy
2:23 AM 44.6 °F 41.4 °F 37.4 °F 76% 29.71 in 10.0 mi SSE 5.8 mph - N/A   Mostly Cloudy
2:53 AM 45.0 °F 43.5 °F 37.9 °F 76% 29.69 in 10.0 mi SSE 3.5 mph - N/A   Partly Cloudy
3:53 AM 44.1 °F 41.5 °F 39.0 °F 82% 29.69 in 10.0 mi SSE 4.6 mph - N/A   Clear
4:53 AM 44.1 °F 42.5 °F 39.0 °F 82% 29.71 in 10.0 mi South 3.5 mph - N/A   Clear
5:53 AM 42.1 °F 40.2 °F 39.0 °F 89% 29.73 in 10.0 mi SSW 3.5 mph - N/A   Clear
6:53 AM 45.0 °F 43.5 °F 41.0 °F 86% 29.74 in 10.0 mi SSE 3.5 mph - N/A   Clear
7:53 AM 48.9 °F - 36.0 °F 61% 29.78 in 10.0 mi SW 9.2 mph - N/A   Clear
8:53 AM 50.0 °F - 32.0 °F 50% 29.79 in 10.0 mi WSW 11.5 mph 18.4 mph N/A   Clear
9:53 AM 53.1 °F - 32.0 °F 45% 29.79 in 10.0 mi West 10.4 mph - N/A   Clear
10:53 AM 55.9 °F - 30.0 °F 37% 29.78 in 10.0 mi West 9.2 mph - N/A   Clear
11:53 AM 57.9 °F - 28.9 °F 33% 29.75 in 10.0 mi SW 9.2 mph 19.6 mph N/A   Clear
12:53 PM 61.0 °F - 27.0 °F 27% 29.73 in 10.0 mi West 13.8 mph 21.9 mph N/A   Clear
1:53 PM 62.1 °F - 28.0 °F 28% 29.72 in 10.0 mi West 17.3 mph 25.3 mph N/A   Mostly Cloudy
2:53 PM 57.2 °F - 26.6 °F 31% 29.73 in 10.0 mi WSW 8.1 mph 28.8 mph N/A   Mostly Cloudy
3:53 PM 61.0 °F - 30.0 °F 31% 29.72 in 10.0 mi West 13.8 mph 23.0 mph N/A   Scattered Clouds
4:53 PM 57.9 °F - 28.0 °F 32% 29.73 in 10.0 mi WSW 16.1 mph 21.9 mph N/A   Mostly Cloudy
5:53 PM 55.9 °F - 33.1 °F 42% 29.75 in 10.0 mi NW 6.9 mph - N/A   Mostly Cloudy
6:53 PM 55.0 °F - 30.9 °F 40% 29.77 in 10.0 mi West 9.2 mph - N/A   Overcast
7:53 PM 53.1 °F - 28.9 °F 40% 29.79 in 10.0 mi West 10.4 mph - N/A   Overcast
8:53 PM 51.1 °F - 30.9 °F 46% 29.82 in 10.0 mi West 9.2 mph - N/A   Overcast
9:53 PM 48.9 °F - 30.0 °F 48% 29.83 in 10.0 mi West 6.9 mph - N/A   Clear
10:53 PM 46.9 °F - 30.0 °F 52% 29.83 in 10.0 mi WSW 5.8 mph - N/A   Clear
11:53 PM 45.0 °F 41.8 °F 28.0 °F 52% 29.85 in 10.0 mi West 5.8 mph - N/A   Partly Cloudy